weather station
Area: 4758 km2
The highest point: Sněžka (1603 m.s.l.)
Total stations: 28
Stations online: 27
Stations offline: 1
Current weather
13°C

Meteorological map - weather stations in Královéhradecký

. The meteorological maps show weather information from WARIO weather stations

Weather stations Královéhradecký

 UpdatesNameStatusTemperatureHumidityWind speedWind direction
28.5.2022 16:00Božanov12.6 °C63.1 %0.0 m/s NW
28.5.2022 16:00Červený Kostelec - Stolín15.2 °C50.0 %0.9 m/s S
28.5.2022 16:00Brzice11.9 °C59.8 %5.4 m/s SW
28.5.2022 16:00Dolany14.4 °C41.6 %5.2 m/s N
28.5.2022 16:00Hradec Králové - Plotiště nad Labem15.7 °C61.0 %1.7 m/s W
28.5.2022 15:56Vrchlabí11.5 °C49.8 %3.0 m/s SE
28.5.2022 16:00Černilov14.0 °C58.5 %0.0 m/s NW
28.5.2022 16:00Hronov12.9 °C47.7 %4.9 m/s NE
28.5.2022 16:00Jaroměř-Josefov13.8 °C51.3 %4.1 m/s W
28.5.2022 16:00Jičín13.7 °C50.4 %3.4 m/s NW
28.5.2022 16:00Kacákova Lhota16.7 °C44.2 %2.6 m/s NW
28.5.2022 16:00Červený Kostelec - Kemp Brodský12.5 °C59.2 %1.7 m/s NE
28.5.2022 16:00Dvůr Králové nad Labem13.4 °C45.6 %6.5 m/s NW
28.5.2022 16:00Vysokov12.0 °C57.7 %4.5 m/s W
28.5.2022 16:00Hradec Králové16.0 °C38.1 %0.7 m/s SW
28.5.2022 16:00Pecka - Horní Javoří11.9 °C52.0 %1.2 m/s E
28.5.2022 16:00Janatov14.2 °C54.4 %2.9 m/s NW
24.5.2022 10:49Hradec Králové - Roudnička20.0 °C75.7 %1.8 m/s SE
28.5.2022 16:00Pohoří15.3 °C46.8 %3.6 m/s NW
28.5.2022 16:00Police nad Metují11.8 °C62.7 %4.3 m/s SW
28.5.2022 16:00Zábřezí - Řečice12.6 °C52.8 %5.4 m/s W
28.5.2022 16:00Skuřina13.7 °C56.2 %1.9 m/s SE
28.5.2022 16:00Sobotka15.7 °C69.8 %1.1 m/s W
28.5.2022 16:00Třebihošť10.3 °C56.4 %7.2 m/s SW
28.5.2022 16:00Velká Jesenice13.6 °C54.1 %3.2 m/s NW
28.5.2022 16:00Vrchlabí11.3 °C64.0 %0.0 m/s W
28.5.2022 16:00Vrchovnice13.9 °C54.0 %4.0 m/s S
28.5.2022 16:00Vysoká nad Labem14.3 °C53.6 %2.5 m/s W
Email notifications
Enter your email address to subscribe to notifications about news at warioweather.com. Your email address will not be used for any purpose other than sending these emails and will not be provided to any third party. The subscription can be ended at any time.
All data are only indicative. The portal administrator has no responsibility for potentially incorrect data and related consequences. Publishing or further sharing of content from www.warioweather.com is only allowed with written consent from WANET s.r.o.